Back to catalog

COSMOS 2355

AliveNavigationPO
NORAD 25366·PAYLOAD·🇷🇺 Russia

Launched Jun 15, 1998 from Plesetsk Cosmodrome

Loading…

Next Passes (next 24 hours)

TLE

FreshSource: Space-Track

Epoch: Sep 14, 2026, 12:38 UTC

1 25366U 98036D   26257.52645609  .00000008  00000-0 -88758-5 0  9997
2 25366  82.5849 288.0323 0353532   7.5795 145.5664 12.21820929259935

Track COSMOS 2355 in real time with AllMySat

Download on the App Store